カタログに戻る

STARLINK-2623

運用中通信VLEO
NORAD 48368·PAYLOAD·🇺🇸 United States

打ち上げ May 4, 2021 から Cape Canaveral Space Force Station

Loading…

次のパス (今後24時間)

TLE

最新Source: CelesTrak SupGP

元期: Sep 14, 2026, 14:02 UTC

1 48368C 21038R   26257.58520833  .00014202  00000+0  45692-3 0  2573
2 48368  53.1583 189.2929 0001327 100.8584 256.5630 15.31678394    10

AllMySatでSTARLINK-2623をリアルタイム追跡

Download on the App Store